Fryeburg, ME

9:05 AM EDT on April 29, 2017 (GMT -0400)
Eastern Slopes Regional

Weather History for KIZG - December, 2013

Change the Weather History Date:

Friday, December 6, 2013

  Actual Average Record
Temperature  
Mean Temperature 39 °F -  
Max Temperature 45 °F 36 °F 69 °F (2001)
Min Temperature 33 °F 17 °F -2 °F (2007)
Degree Days  
Heating Degree Days 26    
Moisture  
Dew Point 31 °F    
Average Humidity 85    
Maximum Humidity 100    
Minimum Humidity 40    
Precipitation  
Precipitation 0.24 in - - ()
Sea Level Pressure  
Sea Level Pressure 29.93 in    
Wind  
Wind Speed 2 mph (West)    
Max Wind Speed 8 mph    
Max Gust Speed 16 mph    
Visibility 4 miles    
Events Fog , Rain    
Averages and records for this station are not official NWS values.
T = Trace of Precipitation, MM = Missing Value Source: NWS Daily Summary

Daily Weather History Graph

Daily Weather History Graph

Search for Another Location

Airport or City:

Trip Planner

Search our weather history database for the weather conditions in past years. The results will help you decide how hot, cold, wet, or windy it might be!

Date:

Astronomy

Dec. 06, 2013 Rise Set
Actual Time 7:03 AM EST 4:05 PM EST
Civil Twilight 6:31 AM EST 4:38 PM EST
Nautical Twilight 5:55 AM EST 5:14 PM EST
Astronomical Twilight 5:20 AM EST 5:49 PM EST
Moon 10:02 AM EST (12/6) 8:39 PM EST (12/6)
Length of Visible Light 10h 07m
Length of Day
9h 01m
Waxing Crescent, 19% of the Moon is Illuminated
Dec 6
Waxing Crescent
Dec 9
First Quarter
Dec 17
Full
Dec 25
Last Quarter
Jan 1
New

Hourly Weather History & Observations

Time (EST) Temp. Windchill Dew Point Humidity Pressure Visibility Wind Dir Wind Speed Gust Speed Precip Events Conditions
12:18 AM 33.1 °F 30.0 °F 32.0 °F 96% 29.88 in 0.8 mi WNW 3.5 mph - N/A   Mist
12:29 AM 33.1 °F - 32.0 °F 96% 29.88 in 1.2 mi Calm Calm - N/A   Overcast
12:41 AM 33.1 °F - 32.0 °F 96% 29.87 in 2.0 mi Calm Calm - N/A   Overcast
12:54 AM 33.1 °F - 32.0 °F 96% 29.88 in 3.0 mi Calm Calm - N/A   Overcast
1:03 AM 33.1 °F - 32.0 °F 96% 29.87 in 2.5 mi Calm Calm - N/A   Overcast
1:20 AM 33.1 °F - 32.0 °F 96% 29.87 in 1.2 mi Calm Calm - N/A   Overcast
1:34 AM 33.1 °F - 32.0 °F 96% 29.88 in 1.5 mi Calm Calm - N/A   Overcast
1:47 AM 33.1 °F 28.7 °F 32.0 °F 96% 29.86 in 0.8 mi East 4.6 mph - N/A   Overcast
1:54 AM 33.1 °F - 32.0 °F 96% 29.88 in 0.5 mi Calm Calm - N/A Fog Fog
2:20 AM 33.1 °F - 32.0 °F 96% 29.85 in 0.8 mi Calm Calm - N/A   Mist
2:27 AM 33.1 °F - 32.0 °F 96% 29.85 in 0.8 mi Calm Calm - N/A   Mist
2:54 AM 33.1 °F 30.0 °F 32.0 °F 96% 29.87 in 0.5 mi WNW 3.5 mph - N/A Fog Fog
3:54 AM 33.1 °F - 32.0 °F 96% 29.87 in 0.5 mi Calm Calm - N/A Fog Fog
4:54 AM 33.1 °F 30.0 °F 32.0 °F 96% 29.87 in 0.5 mi SSW 3.5 mph - N/A Fog Fog
5:22 AM 33.1 °F - 33.1 °F 100% 29.87 in 1.5 mi Calm Calm - 0.02 in Rain Light Rain
5:29 AM 33.1 °F - 33.1 °F 100% 29.89 in 2.5 mi Calm Calm - 0.02 in Rain Light Rain
5:45 AM 34.0 °F 31.0 °F 33.1 °F 96% 29.90 in 4.0 mi NNW 3.5 mph - 0.04 in Rain Light Rain
5:52 AM 33.8 °F 30.8 °F 32.0 °F 93% 29.90 in 4.0 mi West 3.5 mph - 0.04 in Rain Light Rain
5:54 AM 33.1 °F - 32.0 °F 96% 29.93 in 4.0 mi Calm Calm - 0.04 in Rain Light Rain
6:15 AM 34.0 °F - 33.1 °F 96% 29.92 in 2.0 mi Calm Calm - 0.05 in Rain Rain
6:22 AM 34.0 °F 31.0 °F 33.1 °F 96% 29.91 in 2.5 mi SE 3.5 mph - 0.06 in Rain Rain
6:48 AM 33.8 °F - 33.8 °F 100% 29.89 in 1.8 mi Calm Calm - 0.08 in Rain Light Rain
6:54 AM 34.0 °F - 33.1 °F 96% 29.90 in 2.0 mi Calm Calm - 0.08 in Rain Light Rain
7:02 AM 34.0 °F - 33.1 °F 96% 29.89 in 4.0 mi Calm Calm - 0.00 in Rain Light Rain
7:31 AM 35.1 °F - 34.0 °F 96% 29.90 in 4.0 mi Calm Calm - 0.01 in Rain Light Rain
7:46 AM 34.0 °F - 33.1 °F 96% 29.89 in 2.5 mi Calm Calm - 0.02 in Rain Light Rain
7:54 AM 34.0 °F 31.0 °F 33.1 °F 96% 29.92 in 2.0 mi NW 3.5 mph - 0.02 in Rain Light Rain
8:02 AM 34.0 °F - 33.1 °F 96% 29.90 in 1.8 mi Calm Calm - 0.02 in Rain Rain
8:14 AM 35.1 °F 32.2 °F 34.0 °F 96% 29.91 in 1.5 mi West 3.5 mph - 0.04 in Rain Rain
8:33 AM 35.1 °F - 34.0 °F 96% 29.94 in 2.0 mi Calm Calm - 0.08 in Rain Rain
8:40 AM 35.1 °F - 34.0 °F 96% 29.95 in 3.0 mi Calm Calm - 0.09 in Rain Light Rain
8:46 AM 36.0 °F - 35.1 °F 97% 29.95 in 2.5 mi Calm Calm - 0.10 in Rain Rain
8:54 AM 36.0 °F - 35.1 °F 97% 29.98 in 3.0 mi Calm Calm - 0.10 in Rain Light Rain
9:05 AM 36.0 °F - 35.1 °F 97% 29.96 in 4.0 mi Calm Calm - 0.00 in Rain Light Rain
9:54 AM 39.0 °F 35.7 °F 37.9 °F 96% 29.96 in 9.0 mi SW 4.6 mph - 0.00 in   Overcast
10:54 AM 41.0 °F 36.4 °F 32.0 °F 70% 29.95 in 10.0 mi West 6.9 mph - N/A   Overcast
11:54 AM 45.0 °F 41.8 °F 30.9 °F 58% 29.94 in 10.0 mi WNW 5.8 mph - N/A   Mostly Cloudy
12:54 PM 45.0 °F 42.6 °F 28.9 °F 53% 29.95 in 10.0 mi Variable 4.6 mph - N/A   Overcast
1:54 PM 44.1 °F 41.5 °F 23.0 °F 43% 29.95 in 10.0 mi Variable 4.6 mph - N/A   Partly Cloudy
2:54 PM 43.0 °F 38.2 °F 19.9 °F 40% 29.96 in 10.0 mi West 8.1 mph 16.1 mph N/A   Partly Cloudy
3:54 PM 42.1 °F - 19.9 °F 41% 29.98 in 10.0 mi Calm Calm - N/A   Clear
4:54 PM 39.9 °F 36.7 °F 21.9 °F 49% 30.01 in 10.0 mi Variable 4.6 mph - N/A   Clear
5:54 PM 39.9 °F 35.8 °F 19.0 °F 43% 30.02 in 10.0 mi West 5.8 mph - N/A   Mostly Cloudy
6:54 PM 37.0 °F 34.5 °F 26.1 °F 65% 30.04 in 10.0 mi NW 3.5 mph - N/A   Scattered Clouds
7:54 PM 37.0 °F - 26.1 °F 65% 30.06 in 10.0 mi Calm Calm - N/A   Overcast
8:54 PM 34.0 °F 31.0 °F 27.0 °F 75% 30.07 in 10.0 mi WNW 3.5 mph - N/A   Overcast
9:54 PM 35.1 °F 32.2 °F 26.1 °F 70% 30.12 in 10.0 mi WSW 3.5 mph - N/A   Overcast
10:54 PM 37.0 °F 34.5 °F 19.9 °F 50% 30.08 in 10.0 mi Variable 3.5 mph - N/A   Overcast
11:54 PM 36.0 °F 30.3 °F 18.0 °F 48% 30.10 in 10.0 mi SW 6.9 mph - N/A   Overcast